Time,TemperatureF,DewpointF,PressureIn,WindDirection,WindDirectionDegrees,WindSpeedMPH,WindSpeedGustMPH,Humidity,HourlyPrecipIn,Conditions,Clouds,dailyrainin,SoftwareType,DateUTC
2013-02-13 00:04:00,33.3,30.4,30.11,North,-999,0.0,0.0,89,0.00,,,0.00,pywws,2013-02-13 00:04:00,
2013-02-13 00:09:00,33.3,30.4,30.10,North,-999,0.0,0.7,89,0.00,,,0.00,pywws,2013-02-13 00:09:00,
2013-02-13 00:14:00,33.3,30.4,30.09,North,-999,0.0,0.7,89,0.00,,,0.00,pywws,2013-02-13 00:14:00,
2013-02-13 00:19:00,32.9,30.0,30.09,North,-999,0.0,0.0,89,0.00,,,0.00,pywws,2013-02-13 00:19:00,
2013-02-13 00:24:00,32.5,29.7,30.10,North,-999,0.0,0.0,89,0.00,,,0.00,pywws,2013-02-13 00:24:00,
2013-02-13 00:29:00,32.0,28.9,30.10,North,-999,0.0,0.7,88,0.00,,,0.00,pywws,2013-02-13 00:29:00,
2013-02-13 00:34:00,31.6,28.8,30.09,North,-999,0.0,0.7,89,0.00,,,0.00,pywws,2013-02-13 00:34:00,
2013-02-13 00:39:00,31.5,28.6,30.09,North,-999,0.0,0.0,89,0.00,,,0.00,pywws,2013-02-13 00:39:00,
2013-02-13 00:44:00,31.1,28.2,30.09,North,-999,0.0,0.0,89,0.00,,,0.00,pywws,2013-02-13 00:44:00,
2013-02-13 00:49:00,30.7,27.9,30.09,North,-999,0.0,0.0,89,0.00,,,0.00,pywws,2013-02-13 00:49:00,
2013-02-13 00:54:00,30.4,27.8,30.08,North,-999,0.0,0.0,90,0.00,,,0.00,pywws,2013-02-13 00:54:00,
2013-02-13 01:04:00,30.4,27.8,30.08,North,-999,0.0,0.0,90,0.00,,,0.00,pywws,2013-02-13 01:04:00,
2013-02-13 01:09:00,30.7,28.7,30.08,North,-999,0.0,0.7,92,0.00,,,0.00,pywws,2013-02-13 01:09:00,
2013-02-13 01:14:00,30.7,28.7,30.09,North,-999,0.0,0.0,92,0.00,,,0.00,pywws,2013-02-13 01:14:00,
2013-02-13 01:19:00,30.6,28.5,30.09,North,-999,0.0,0.0,92,0.00,,,0.00,pywws,2013-02-13 01:19:00,
2013-02-13 01:24:00,30.6,28.5,30.09,North,-999,0.0,0.0,92,0.00,,,0.00,pywws,2013-02-13 01:24:00,
2013-02-13 01:29:00,30.4,28.3,30.09,North,-999,0.0,0.0,92,0.00,,,0.00,pywws,2013-02-13 01:29:00,
2013-02-13 01:34:00,30.2,28.2,30.09,North,-999,0.0,0.0,92,0.00,,,0.00,pywws,2013-02-13 01:34:00,
2013-02-13 01:39:00,29.8,27.8,30.08,North,-999,0.0,0.0,92,0.00,,,0.00,pywws,2013-02-13 01:39:00,
2013-02-13 01:44:00,29.7,27.6,30.08,North,-999,0.0,0.0,92,0.00,,,0.00,pywws,2013-02-13 01:44:00,
2013-02-13 01:49:00,29.7,27.6,30.08,North,-999,0.0,1.6,92,0.00,,,0.00,pywws,2013-02-13 01:49:00,
2013-02-13 01:54:00,29.3,27.5,30.09,North,-999,0.0,0.7,93,0.00,,,0.00,pywws,2013-02-13 01:54:00,
2013-02-13 02:04:00,29.1,27.4,30.09,North,-999,0.0,0.0,93,0.00,,,0.00,pywws,2013-02-13 02:04:00,
2013-02-13 02:09:00,28.8,27.0,30.08,North,-999,0.0,0.0,93,0.00,,,0.00,pywws,2013-02-13 02:09:00,
2013-02-13 02:14:00,28.9,27.2,30.08,North,-999,0.0,0.0,93,0.00,,,0.00,pywws,2013-02-13 02:14:00,
2013-02-13 02:19:00,29.1,27.6,30.08,North,-999,0.0,0.7,94,0.00,,,0.00,pywws,2013-02-13 02:19:00,
2013-02-13 02:24:00,28.9,27.4,30.08,North,-999,0.0,0.7,94,0.00,,,0.00,pywws,2013-02-13 02:24:00,
2013-02-13 02:29:00,28.6,27.1,30.08,North,-999,0.0,0.0,94,0.00,,,0.00,pywws,2013-02-13 02:29:00,
2013-02-13 02:34:00,28.4,26.9,30.07,North,-999,0.0,1.6,94,0.00,,,0.00,pywws,2013-02-13 02:34:00,
2013-02-13 02:39:00,28.6,27.1,30.07,North,-999,0.0,0.7,94,0.00,,,0.00,pywws,2013-02-13 02:39:00,
2013-02-13 02:44:00,29.1,28.1,30.07,NW,315,0.7,1.6,96,0.00,,,0.00,pywws,2013-02-13 02:44:00,
2013-02-13 02:49:00,30.0,28.8,30.07,North,-999,0.0,3.1,95,0.00,,,0.00,pywws,2013-02-13 02:49:00,
2013-02-13 02:54:00,31.5,28.9,30.07,NW,315,0.7,2.2,90,0.00,,,0.00,pywws,2013-02-13 02:54:00,
2013-02-13 03:04:00,32.4,28.6,30.06,North,-999,0.0,2.2,86,0.00,,,0.00,pywws,2013-02-13 03:04:00,
2013-02-13 03:09:00,33.3,27.5,30.06,West,270,0.7,2.2,79,0.00,,,0.00,pywws,2013-02-13 03:09:00,
2013-02-13 03:14:00,33.6,26.9,30.06,North,0,1.6,5.4,76,0.00,,,0.00,pywws,2013-02-13 03:14:00,
2013-02-13 03:19:00,33.8,27.1,30.06,North,0,0.7,1.6,76,0.00,,,0.00,pywws,2013-02-13 03:19:00,
2013-02-13 03:24:00,34.0,26.6,30.06,NW,315,1.6,3.1,74,0.00,,,0.00,pywws,2013-02-13 03:24:00,
2013-02-13 03:29:00,34.2,26.4,30.06,WNW,292,1.6,2.2,73,0.00,,,0.00,pywws,2013-02-13 03:29:00,
2013-02-13 03:34:00,34.3,26.3,30.05,NW,315,1.6,3.8,72,0.00,,,0.00,pywws,2013-02-13 03:34:00,
2013-02-13 03:39:00,34.3,25.9,30.05,NW,315,3.8,6.9,71,0.00,,,0.00,pywws,2013-02-13 03:39:00,
2013-02-13 03:44:00,34.5,25.8,30.04,NW,315,3.1,5.4,70,0.00,,,0.00,pywws,2013-02-13 03:44:00,
2013-02-13 03:49:00,34.5,25.8,30.04,NE,45,1.6,3.1,70,0.00,,,0.00,pywws,2013-02-13 03:49:00,
2013-02-13 03:54:00,34.5,25.4,30.04,NW,315,1.6,4.5,69,0.00,,,0.00,pywws,2013-02-13 03:54:00,
2013-02-13 04:04:00,34.5,25.4,30.04,West,270,1.6,3.1,69,0.00,,,0.00,pywws,2013-02-13 04:04:00,
2013-02-13 04:09:00,34.5,25.1,30.04,NW,315,2.2,6.0,68,0.00,,,0.00,pywws,2013-02-13 04:09:00,
2013-02-13 04:14:00,34.5,25.1,30.04,West,270,1.6,3.8,68,0.00,,,0.00,pywws,2013-02-13 04:14:00,
2013-02-13 04:19:00,34.5,25.1,30.03,NE,45,3.1,6.9,68,0.00,,,0.00,pywws,2013-02-13 04:19:00,
2013-02-13 04:24:00,34.5,25.1,30.04,NW,315,1.6,3.1,68,0.00,,,0.00,pywws,2013-02-13 04:24:00,
2013-02-13 04:29:00,34.5,25.1,30.04,NW,315,2.2,4.5,68,0.00,,,0.00,pywws,2013-02-13 04:29:00,
2013-02-13 04:34:00,34.5,25.4,30.04,NW,315,1.6,3.1,69,0.00,,,0.00,pywws,2013-02-13 04:34:00,
2013-02-13 04:39:00,34.5,25.4,30.03,NW,315,1.6,3.1,69,0.00,,,0.00,pywws,2013-02-13 04:39:00,
2013-02-13 04:44:00,34.5,25.4,30.03,NW,315,3.1,5.4,69,0.00,,,0.00,pywws,2013-02-13 04:44:00,
2013-02-13 04:49:00,34.5,25.4,30.03,West,270,2.2,4.5,69,0.00,,,0.00,pywws,2013-02-13 04:49:00,
2013-02-13 04:54:00,34.5,25.4,30.02,NW,315,2.2,4.5,69,0.00,,,0.00,pywws,2013-02-13 04:54:00,
2013-02-13 05:04:00,34.5,25.4,30.02,North,0,3.8,7.6,69,0.00,,,0.00,pywws,2013-02-13 05:04:00,
2013-02-13 05:09:00,34.5,25.8,30.02,NW,315,3.1,6.0,70,0.00,,,0.00,pywws,2013-02-13 05:09:00,
2013-02-13 05:14:00,34.5,26.1,30.02,NW,315,1.6,3.8,71,0.00,,,0.00,pywws,2013-02-13 05:14:00,
2013-02-13 05:19:00,34.3,25.9,30.02,NW,315,3.1,5.4,71,0.00,,,0.00,pywws,2013-02-13 05:19:00,
2013-02-13 05:24:00,34.3,25.9,30.02,West,270,4.5,10.7,71,0.00,,,0.00,pywws,2013-02-13 05:24:00,
2013-02-13 05:29:00,34.3,25.9,30.02,NW,315,2.2,4.5,71,0.00,,,0.00,pywws,2013-02-13 05:29:00,
2013-02-13 05:34:00,34.3,25.9,30.02,NW,315,1.6,4.5,71,0.00,,,0.00,pywws,2013-02-13 05:34:00,
2013-02-13 05:39:00,34.3,26.3,30.01,NW,315,1.6,4.5,72,0.00,,,0.00,pywws,2013-02-13 05:39:00,
2013-02-13 05:44:00,34.3,26.3,30.01,SW,225,3.1,6.0,72,0.00,,,0.00,pywws,2013-02-13 05:44:00,
2013-02-13 05:49:00,34.3,26.3,30.01,NW,315,2.2,5.4,72,0.00,,,0.00,pywws,2013-02-13 05:49:00,
2013-02-13 05:54:00,34.3,26.6,30.01,NNW,338,3.1,6.9,73,0.00,,,0.00,pywws,2013-02-13 05:54:00,
2013-02-13 06:04:00,34.3,26.6,30.00,WNW,292,3.8,10.7,73,0.00,,,0.00,pywws,2013-02-13 06:04:00,
2013-02-13 06:09:00,34.3,26.9,30.00,NW,315,4.5,9.8,74,0.00,,,0.00,pywws,2013-02-13 06:09:00,
2013-02-13 06:14:00,34.3,26.9,30.00,North,0,4.5,8.3,74,0.00,,,0.00,pywws,2013-02-13 06:14:00,
2013-02-13 06:19:00,34.2,27.4,30.00,North,-999,3.1,6.0,76,0.00,,,0.00,pywws,2013-02-13 06:19:00,
2013-02-13 06:24:00,34.2,28.0,30.00,NW,315,2.2,6.9,78,0.00,,,0.00,pywws,2013-02-13 06:24:00,
2013-02-13 06:29:00,33.8,28.3,30.00,NW,315,3.8,8.3,80,0.00,,,0.00,pywws,2013-02-13 06:29:00,
2013-02-13 06:34:00,33.6,28.7,29.99,NW,315,4.5,9.8,82,0.00,,,0.00,pywws,2013-02-13 06:34:00,
2013-02-13 06:39:00,33.1,29.4,29.99,North,0,3.1,6.0,86,0.00,,,0.00,pywws,2013-02-13 06:39:00,
2013-02-13 06:44:00,32.9,30.0,29.99,SW,225,2.2,5.4,89,0.00,,,0.00,pywws,2013-02-13 06:44:00,
2013-02-13 06:49:00,32.7,30.1,29.99,NW,315,2.2,8.3,90,0.00,,,0.00,pywws,2013-02-13 06:49:00,
2013-02-13 06:54:00,32.5,29.9,29.98,NW,315,4.5,9.2,90,0.00,,,0.00,pywws,2013-02-13 06:54:00,
2013-02-13 07:04:00,32.7,29.8,29.99,NW,315,6.0,10.7,89,0.00,,,0.00,pywws,2013-02-13 07:04:00,
2013-02-13 07:09:00,32.9,29.5,29.98,WNW,292,3.8,7.6,87,0.00,,,0.00,pywws,2013-02-13 07:09:00,
2013-02-13 07:14:00,32.9,29.2,29.98,NNW,338,4.5,10.7,86,0.00,,,0.00,pywws,2013-02-13 07:14:00,
2013-02-13 07:19:00,32.9,29.2,29.98,NW,315,3.1,9.2,86,0.00,,,0.00,pywws,2013-02-13 07:19:00,
2013-02-13 07:24:00,32.7,29.6,29.98,NW,315,3.8,11.4,88,0.00,,,0.00,pywws,2013-02-13 07:24:00,
2013-02-13 07:29:00,32.5,29.4,29.97,West,270,4.5,8.3,88,0.00,,,0.00,pywws,2013-02-13 07:29:00,
2013-02-13 07:34:00,32.5,29.7,29.98,NW,315,2.2,4.5,89,0.00,,,0.00,pywws,2013-02-13 07:34:00,
2013-02-13 07:39:00,32.5,29.7,29.97,NW,315,1.6,5.4,89,0.00,,,0.00,pywws,2013-02-13 07:39:00,
2013-02-13 07:44:00,32.5,29.7,29.96,NW,315,1.6,3.1,89,0.00,,,0.00,pywws,2013-02-13 07:44:00,
2013-02-13 07:49:00,32.7,29.3,29.96,NW,315,5.4,11.4,87,0.00,,,0.00,pywws,2013-02-13 07:49:00,
2013-02-13 07:54:00,32.9,29.2,29.96,West,270,3.8,8.3,86,0.00,,,0.00,pywws,2013-02-13 07:54:00,
2013-02-13 08:04:00,33.1,29.4,29.95,NNW,338,2.2,4.5,86,0.00,,,0.00,pywws,2013-02-13 08:04:00,
2013-02-13 08:09:00,33.3,29.2,29.95,NW,315,3.8,9.2,85,0.00,,,0.00,pywws,2013-02-13 08:09:00,
2013-02-13 08:14:00,33.3,29.5,29.95,NW,315,4.5,9.2,86,0.00,,,0.00,pywws,2013-02-13 08:14:00,
2013-02-13 08:19:00,32.9,29.7,29.95,SW,225,4.5,9.8,88,0.00,,,0.00,pywws,2013-02-13 08:19:00,
2013-02-13 08:24:00,32.9,29.7,29.95,West,270,4.5,10.7,88,0.00,,,0.00,pywws,2013-02-13 08:24:00,
2013-02-13 08:29:00,33.1,29.6,29.95,WSW,248,5.4,12.1,87,0.00,,,0.00,pywws,2013-02-13 08:29:00,
2013-02-13 08:34:00,33.3,29.5,29.94,NNW,338,5.4,9.8,86,0.00,,,0.00,pywws,2013-02-13 08:34:00,
2013-02-13 08:39:00,33.3,29.2,29.94,NW,315,4.5,9.2,85,0.00,,,0.00,pywws,2013-02-13 08:39:00,
2013-02-13 08:44:00,33.4,29.4,29.94,North,0,3.1,6.0,85,0.00,,,0.00,pywws,2013-02-13 08:44:00,
2013-02-13 08:49:00,33.4,29.7,29.95,West,270,2.2,5.4,86,0.00,,,0.00,pywws,2013-02-13 08:49:00,
2013-02-13 08:54:00,33.3,29.8,29.95,West,270,5.4,10.7,87,0.00,,,0.00,pywws,2013-02-13 08:54:00,
2013-02-13 09:04:00,33.3,29.8,29.95,West,270,2.2,6.0,87,0.00,,,0.00,pywws,2013-02-13 09:04:00,
2013-02-13 09:09:00,33.3,30.4,29.95,NW,315,2.2,5.4,89,0.00,,,0.00,pywws,2013-02-13 09:09:00,
2013-02-13 09:14:00,33.3,30.4,29.94,East,90,1.6,3.1,89,0.00,,,0.00,pywws,2013-02-13 09:14:00,
2013-02-13 09:19:00,33.3,30.4,29.94,NW,315,4.5,9.2,89,0.00,,,0.00,pywws,2013-02-13 09:19:00,
2013-02-13 09:24:00,33.3,30.4,29.94,NW,315,1.6,3.8,89,0.00,,,0.00,pywws,2013-02-13 09:24:00,
2013-02-13 09:29:00,33.3,30.4,29.93,NW,315,3.1,6.0,89,0.00,,,0.00,pywws,2013-02-13 09:29:00,
2013-02-13 09:34:00,33.3,30.4,29.93,NW,315,1.6,3.8,89,0.00,,,0.00,pywws,2013-02-13 09:34:00,
2013-02-13 09:39:00,33.3,30.4,29.93,North,0,2.2,9.8,89,0.00,,,0.00,pywws,2013-02-13 09:39:00,
2013-02-13 09:44:00,33.3,30.4,29.92,NW,315,4.5,6.9,89,0.00,,,0.00,pywws,2013-02-13 09:44:00,
2013-02-13 09:49:00,33.3,30.4,29.92,West,270,2.2,6.9,89,0.00,,,0.00,pywws,2013-02-13 09:49:00,
2013-02-13 09:54:00,33.4,30.3,29.92,NW,315,3.1,6.9,88,0.00,,,0.00,pywws,2013-02-13 09:54:00,
2013-02-13 10:04:00,33.4,30.3,29.92,West,270,3.1,6.0,88,0.00,,,0.00,pywws,2013-02-13 10:04:00,
2013-02-13 10:09:00,33.6,30.2,29.92,NW,315,2.2,9.2,87,0.00,,,0.00,pywws,2013-02-13 10:09:00,
2013-02-13 10:14:00,33.8,30.3,29.91,WNW,292,2.2,5.4,87,0.00,,,0.00,pywws,2013-02-13 10:14:00,
2013-02-13 10:19:00,33.8,30.3,29.91,NW,315,3.1,6.0,87,0.00,,,0.00,pywws,2013-02-13 10:19:00,
2013-02-13 10:24:00,33.8,30.3,29.91,NW,315,5.4,10.7,87,0.00,,,0.00,pywws,2013-02-13 10:24:00,
2013-02-13 10:29:00,33.6,30.5,29.90,NW,315,4.5,10.7,88,0.00,,,0.00,pywws,2013-02-13 10:29:00,
2013-02-13 10:34:00,33.6,30.7,29.90,NW,315,6.0,12.1,89,0.00,,,0.00,pywws,2013-02-13 10:34:00,
2013-02-13 10:39:00,33.6,30.7,29.89,NW,315,4.5,10.7,89,0.00,,,0.00,pywws,2013-02-13 10:39:00,
2013-02-13 10:44:00,33.6,30.7,29.89,NW,315,3.1,6.9,89,0.00,,,0.00,pywws,2013-02-13 10:44:00,
2013-02-13 10:49:00,33.6,30.7,29.89,NW,315,6.0,12.1,89,0.00,,,0.00,pywws,2013-02-13 10:49:00,
2013-02-13 10:54:00,33.8,30.9,29.89,WNW,292,3.1,6.0,89,0.00,,,0.00,pywws,2013-02-13 10:54:00,
2013-02-13 11:04:00,33.8,30.6,29.89,North,0,3.8,9.8,88,0.00,,,0.00,pywws,2013-02-13 11:04:00,
2013-02-13 11:09:00,34.2,31.0,29.88,West,270,4.5,7.6,88,0.00,,,0.00,pywws,2013-02-13 11:09:00,
2013-02-13 11:14:00,34.2,31.0,29.88,NW,315,4.5,6.9,88,0.00,,,0.00,pywws,2013-02-13 11:14:00,
2013-02-13 11:19:00,34.0,31.1,29.88,SW,225,6.0,9.2,89,0.00,,,0.00,pywws,2013-02-13 11:19:00,
2013-02-13 11:24:00,34.0,31.1,29.87,NW,315,6.0,13.0,89,0.00,,,0.00,pywws,2013-02-13 11:24:00,
2013-02-13 11:29:00,34.2,31.3,29.87,NW,315,4.5,8.3,89,0.00,,,0.00,pywws,2013-02-13 11:29:00,
2013-02-13 11:34:00,34.2,31.3,29.87,West,270,6.9,13.0,89,0.00,,,0.00,pywws,2013-02-13 11:34:00,
2013-02-13 11:39:00,34.0,31.1,29.87,West,270,5.4,12.1,89,0.00,,,0.00,pywws,2013-02-13 11:39:00,
2013-02-13 11:44:00,34.2,31.5,29.86,NW,315,3.8,8.3,90,0.00,,,0.00,pywws,2013-02-13 11:44:00,
2013-02-13 11:49:00,34.2,31.5,29.86,NE,45,3.1,6.0,90,0.00,,,0.00,pywws,2013-02-13 11:49:00,
2013-02-13 11:54:00,34.2,31.5,29.86,NW,315,3.8,7.6,90,0.00,,,0.00,pywws,2013-02-13 11:54:00,
2013-02-13 12:04:00,34.2,31.5,29.85,NW,315,3.8,9.2,90,0.00,,,0.00,pywws,2013-02-13 12:04:00,
2013-02-13 12:09:00,34.3,31.7,29.84,NNW,338,5.4,8.3,90,0.00,,,0.00,pywws,2013-02-13 12:09:00,
2013-02-13 12:14:00,34.3,31.7,29.83,NE,45,6.9,12.1,90,0.00,,,0.00,pywws,2013-02-13 12:14:00,
2013-02-13 12:19:00,34.3,31.7,29.83,WNW,292,6.0,15.9,90,0.00,,,0.00,pywws,2013-02-13 12:19:00,
2013-02-13 12:24:00,34.3,31.4,29.82,North,0,4.5,7.6,89,0.00,,,0.00,pywws,2013-02-13 12:24:00,
2013-02-13 12:29:00,34.5,31.6,29.82,WNW,292,9.2,17.5,89,0.00,,,0.00,pywws,2013-02-13 12:29:00,
2013-02-13 12:34:00,34.7,31.8,29.82,WNW,292,6.0,11.4,89,0.00,,,0.00,pywws,2013-02-13 12:34:00,
2013-02-13 12:39:00,34.7,31.5,29.81,NNW,338,7.6,16.8,88,0.00,,,0.00,pywws,2013-02-13 12:39:00,
2013-02-13 12:44:00,34.7,31.8,29.81,SW,225,6.0,9.2,89,0.00,,,0.00,pywws,2013-02-13 12:44:00,
2013-02-13 12:49:00,34.7,31.8,29.81,NW,315,6.9,13.0,89,0.00,,,0.00,pywws,2013-02-13 12:49:00,
2013-02-13 12:54:00,34.7,31.8,29.80,NW,315,7.6,14.5,89,0.00,,,0.00,pywws,2013-02-13 12:54:00,
2013-02-13 13:04:00,34.9,32.0,29.80,WNW,292,6.0,11.4,89,0.00,,,0.00,pywws,2013-02-13 13:04:00,
2013-02-13 13:09:00,34.9,32.0,29.79,North,0,6.9,11.4,89,0.00,,,0.00,pywws,2013-02-13 13:09:00,
2013-02-13 13:14:00,34.9,32.0,29.79,NW,315,5.4,9.2,89,0.00,,,0.00,pywws,2013-02-13 13:14:00,
2013-02-13 13:19:00,34.9,32.0,29.78,South,180,6.9,12.1,89,0.00,,,0.00,pywws,2013-02-13 13:19:00,
2013-02-13 13:24:00,34.9,32.0,29.77,North,0,7.6,13.6,89,0.00,,,0.00,pywws,2013-02-13 13:24:00,
2013-02-13 13:29:00,34.9,32.3,29.78,North,0,3.8,10.7,90,0.00,,,0.00,pywws,2013-02-13 13:29:00,
2013-02-13 13:34:00,34.9,32.3,29.77,West,270,8.3,13.0,90,0.00,,,0.00,pywws,2013-02-13 13:34:00,
2013-02-13 13:39:00,34.9,32.3,29.77,NW,315,4.5,8.3,90,0.00,,,0.00,pywws,2013-02-13 13:39:00,
2013-02-13 13:44:00,35.1,32.2,29.76,NW,315,4.5,8.3,89,0.00,,,0.00,pywws,2013-02-13 13:44:00,
2013-02-13 13:49:00,35.1,32.4,29.76,NW,315,4.5,8.3,90,0.00,,,0.00,pywws,2013-02-13 13:49:00,
2013-02-13 13:54:00,35.2,32.6,29.76,NW,315,6.0,11.4,90,0.00,,,0.00,pywws,2013-02-13 13:54:00,
2013-02-13 14:04:00,35.2,32.6,29.75,NW,315,6.0,13.0,90,0.00,,,0.00,pywws,2013-02-13 14:04:00,
2013-02-13 14:09:00,35.4,32.8,29.74,NW,315,6.9,13.0,90,0.00,,,0.00,pywws,2013-02-13 14:09:00,
2013-02-13 14:14:00,35.4,32.8,29.74,West,270,4.5,11.4,90,0.00,,,0.00,pywws,2013-02-13 14:14:00,
2013-02-13 14:19:00,35.4,32.8,29.73,NW,315,5.4,12.1,90,0.00,,,0.00,pywws,2013-02-13 14:19:00,
2013-02-13 14:24:00,35.4,33.1,29.73,NW,315,2.2,6.0,91,0.00,,,0.00,pywws,2013-02-13 14:24:00,
2013-02-13 14:29:00,35.4,33.3,29.73,East,90,2.2,6.9,92,0.00,,,0.00,pywws,2013-02-13 14:29:00,
2013-02-13 14:34:00,35.2,33.2,29.73,North,0,6.0,9.8,92,0.00,,,0.00,pywws,2013-02-13 14:34:00,
2013-02-13 14:39:00,35.2,33.2,29.72,West,270,4.5,9.8,92,0.00,,,0.00,pywws,2013-02-13 14:39:00,
2013-02-13 14:44:00,35.2,33.4,29.72,NW,315,0.7,2.2,93,0.00,,,0.00,pywws,2013-02-13 14:44:00,
2013-02-13 14:49:00,35.2,33.7,29.71,NE,45,2.2,4.5,94,0.00,,,0.00,pywws,2013-02-13 14:49:00,
2013-02-13 14:54:00,35.2,33.7,29.70,North,-999,0.0,3.8,94,0.00,,,0.00,pywws,2013-02-13 14:54:00,
2013-02-13 15:04:00,35.4,34.1,29.70,NW,315,0.7,1.6,95,0.00,,,0.00,pywws,2013-02-13 15:04:00,
2013-02-13 15:09:00,35.6,34.6,29.70,North,0,2.2,4.5,96,0.00,,,0.00,pywws,2013-02-13 15:09:00,
2013-02-13 15:14:00,35.8,35.0,29.69,NW,315,1.6,4.5,97,0.00,,,0.00,pywws,2013-02-13 15:14:00,
2013-02-13 15:19:00,36.0,35.2,29.68,NW,315,0.7,3.8,97,0.00,,,0.00,pywws,2013-02-13 15:19:00,
2013-02-13 15:24:00,36.3,35.3,29.68,NW,315,4.5,9.2,96,0.00,,,0.00,pywws,2013-02-13 15:24:00,
2013-02-13 15:29:00,36.7,35.6,29.68,NW,315,1.6,5.4,96,0.00,,,0.00,pywws,2013-02-13 15:29:00,
2013-02-13 15:34:00,36.7,35.6,29.68,North,-999,0.0,0.7,96,0.00,,,0.00,pywws,2013-02-13 15:34:00,
2013-02-13 15:39:00,36.5,35.5,29.68,East,90,0.7,2.2,96,0.00,,,0.00,pywws,2013-02-13 15:39:00,
2013-02-13 15:44:00,36.9,36.1,29.67,East,90,1.6,6.0,97,0.00,,,0.00,pywws,2013-02-13 15:44:00,
2013-02-13 15:49:00,36.9,36.1,29.67,NW,315,1.6,4.5,97,0.00,,,0.00,pywws,2013-02-13 15:49:00,
2013-02-13 15:54:00,37.0,36.3,29.66,NW,315,1.6,5.4,97,0.00,,,0.00,pywws,2013-02-13 15:54:00,
2013-02-13 16:04:00,37.2,36.4,29.66,NW,315,0.7,2.2,97,0.00,,,0.00,pywws,2013-02-13 16:04:00,
2013-02-13 16:09:00,37.4,36.6,29.65,WNW,292,3.1,6.9,97,0.00,,,0.00,pywws,2013-02-13 16:09:00,
2013-02-13 16:14:00,37.6,36.8,29.65,North,0,2.2,5.4,97,0.00,,,0.00,pywws,2013-02-13 16:14:00,
2013-02-13 16:19:00,37.6,36.5,29.64,West,270,2.2,4.5,96,0.00,,,0.00,pywws,2013-02-13 16:19:00,
2013-02-13 16:24:00,37.6,36.5,29.65,NW,315,1.6,3.1,96,0.00,,,0.00,pywws,2013-02-13 16:24:00,
2013-02-13 16:29:00,37.6,36.5,29.64,North,-999,0.0,1.6,96,0.00,,,0.00,pywws,2013-02-13 16:29:00,
2013-02-13 16:34:00,37.6,36.5,29.63,North,-999,0.0,1.6,96,0.00,,,0.00,pywws,2013-02-13 16:34:00,
2013-02-13 16:39:00,37.6,36.5,29.63,North,0,0.7,2.2,96,0.00,,,0.00,pywws,2013-02-13 16:39:00,
2013-02-13 16:44:00,37.6,36.8,29.62,South,180,2.2,4.5,97,0.00,,,0.00,pywws,2013-02-13 16:44:00,
2013-02-13 16:49:00,37.8,37.0,29.61,SW,225,1.6,4.5,97,0.00,,,0.00,pywws,2013-02-13 16:49:00,
2013-02-13 16:54:00,38.1,37.6,29.61,NNW,338,3.1,6.0,98,0.00,,,0.00,pywws,2013-02-13 16:54:00,
2013-02-13 17:04:00,38.5,37.7,29.60,West,270,2.2,6.9,97,0.00,,,0.00,pywws,2013-02-13 17:04:00,
2013-02-13 17:09:00,38.8,38.3,29.58,North,0,6.9,11.4,98,0.00,,,0.00,pywws,2013-02-13 17:09:00,
2013-02-13 17:14:00,39.0,38.2,29.57,WNW,292,7.6,16.8,97,0.00,,,0.00,pywws,2013-02-13 17:14:00,
2013-02-13 17:19:00,39.0,38.2,29.57,NW,315,7.6,13.0,97,0.00,,,0.00,pywws,2013-02-13 17:19:00,
2013-02-13 17:24:00,39.4,38.6,29.57,North,0,5.4,11.4,97,0.00,,,0.00,pywws,2013-02-13 17:24:00,
2013-02-13 17:29:00,39.6,38.8,29.57,NW,315,10.7,21.2,97,0.00,,,0.00,pywws,2013-02-13 17:29:00,
2013-02-13 17:34:00,39.6,38.8,29.57,WSW,248,5.4,8.3,97,0.00,,,0.00,pywws,2013-02-13 17:34:00,
2013-02-13 17:39:00,39.7,38.7,29.57,NNE,22,8.3,13.6,96,0.00,,,0.00,pywws,2013-02-13 17:39:00,
2013-02-13 17:44:00,39.6,38.8,29.57,WNW,292,8.3,14.5,97,0.00,,,0.00,pywws,2013-02-13 17:44:00,
2013-02-13 17:49:00,39.6,38.8,29.57,West,270,7.6,11.4,97,0.00,,,0.00,pywws,2013-02-13 17:49:00,
2013-02-13 17:54:00,39.6,38.8,29.57,North,0,6.9,12.1,97,0.00,,,0.00,pywws,2013-02-13 17:54:00,
2013-02-13 18:04:00,39.6,38.8,29.57,NW,315,5.4,9.8,97,0.00,,,0.00,pywws,2013-02-13 18:04:00,
2013-02-13 18:09:00,39.7,39.0,29.56,NW,315,7.6,12.1,97,0.00,,,0.00,pywws,2013-02-13 18:09:00,
2013-02-13 18:14:00,39.7,39.2,29.55,West,270,4.5,7.6,98,0.00,,,0.00,pywws,2013-02-13 18:14:00,
2013-02-13 18:19:00,39.9,39.4,29.55,West,270,6.0,10.7,98,0.00,,,0.00,pywws,2013-02-13 18:19:00,
2013-02-13 18:24:00,40.1,39.6,29.54,West,270,7.6,15.2,98,0.00,,,0.00,pywws,2013-02-13 18:24:00,
2013-02-13 18:29:00,40.3,39.8,29.54,NW,315,6.9,14.5,98,0.00,,,0.00,pywws,2013-02-13 18:29:00,
2013-02-13 18:34:00,40.1,39.6,29.54,NW,315,6.9,15.9,98,0.00,,,0.00,pywws,2013-02-13 18:34:00,
2013-02-13 18:39:00,40.3,39.8,29.54,NW,315,6.9,16.8,98,0.00,,,0.00,pywws,2013-02-13 18:39:00,
2013-02-13 18:44:00,40.3,39.8,29.54,West,270,5.4,9.2,98,0.00,,,0.00,pywws,2013-02-13 18:44:00,
2013-02-13 18:49:00,40.5,39.9,29.54,West,270,6.0,14.5,98,0.00,,,0.00,pywws,2013-02-13 18:49:00,
2013-02-13 18:54:00,40.5,39.9,29.54,NW,315,7.6,19.0,98,0.00,,,0.00,pywws,2013-02-13 18:54:00,
2013-02-13 19:04:00,40.5,39.9,29.53,NW,315,6.9,13.6,98,0.00,,,0.00,pywws,2013-02-13 19:04:00,
2013-02-13 19:09:00,40.8,40.3,29.53,North,0,7.6,15.2,98,0.00,,,0.00,pywws,2013-02-13 19:09:00,
2013-02-13 19:14:00,41.2,40.7,29.53,NW,315,6.9,13.6,98,0.00,,,0.00,pywws,2013-02-13 19:14:00,
2013-02-13 19:19:00,41.2,40.7,29.53,NW,315,6.9,11.4,98,0.00,,,0.00,pywws,2013-02-13 19:19:00,
2013-02-13 19:24:00,41.4,40.8,29.53,NW,315,6.9,12.1,98,0.00,,,0.00,pywws,2013-02-13 19:24:00,
2013-02-13 19:29:00,41.7,40.9,29.53,SW,225,7.6,10.7,97,0.00,,,0.00,pywws,2013-02-13 19:29:00,
2013-02-13 19:34:00,41.9,41.1,29.53,North,0,4.5,8.3,97,0.00,,,0.00,pywws,2013-02-13 19:34:00,
2013-02-13 19:39:00,42.1,41.3,29.52,NW,315,6.9,10.7,97,0.00,,,0.00,pywws,2013-02-13 19:39:00,
2013-02-13 19:44:00,42.4,41.4,29.53,NW,315,6.0,11.4,96,0.00,,,0.00,pywws,2013-02-13 19:44:00,
2013-02-13 19:49:00,42.6,41.6,29.53,NW,315,5.4,9.8,96,0.00,,,0.00,pywws,2013-02-13 19:49:00,
2013-02-13 19:54:00,42.8,41.7,29.53,NW,315,8.3,14.5,96,0.00,,,0.00,pywws,2013-02-13 19:54:00,
2013-02-13 20:04:00,42.8,41.7,29.53,North,0,7.6,15.2,96,0.00,,,0.00,pywws,2013-02-13 20:04:00,
2013-02-13 20:09:00,42.6,41.6,29.53,NW,315,4.5,9.8,96,0.00,,,0.00,pywws,2013-02-13 20:09:00,
2013-02-13 20:14:00,42.6,41.8,29.53,NW,315,6.0,12.1,97,0.00,,,0.00,pywws,2013-02-13 20:14:00,
2013-02-13 20:19:00,42.6,41.8,29.53,West,270,6.0,12.1,97,0.00,,,0.00,pywws,2013-02-13 20:19:00,
2013-02-13 20:24:00,42.4,41.4,29.52,North,0,3.8,6.9,96,0.00,,,0.00,pywws,2013-02-13 20:24:00,
2013-02-13 20:29:00,42.4,41.4,29.53,North,0,7.6,12.1,96,0.00,,,0.00,pywws,2013-02-13 20:29:00,
2013-02-13 20:34:00,42.3,41.5,29.53,NW,315,6.0,14.5,97,0.00,,,0.00,pywws,2013-02-13 20:34:00,
2013-02-13 20:39:00,42.3,41.5,29.52,NW,315,5.4,13.0,97,0.00,,,0.00,pywws,2013-02-13 20:39:00,
2013-02-13 20:44:00,42.4,41.6,29.52,WSW,248,4.5,15.2,97,0.00,,,0.00,pywws,2013-02-13 20:44:00,
2013-02-13 20:49:00,42.6,41.6,29.52,NW,315,5.4,9.8,96,0.00,,,0.00,pywws,2013-02-13 20:49:00,
2013-02-13 20:54:00,42.8,41.7,29.53,East,90,5.4,9.8,96,0.00,,,0.00,pywws,2013-02-13 20:54:00,
2013-02-13 21:04:00,43.0,41.6,29.53,NW,315,6.0,9.8,95,0.00,,,0.00,pywws,2013-02-13 21:04:00,
2013-02-13 21:09:00,43.2,41.8,29.53,NW,315,3.8,9.8,95,0.00,,,0.00,pywws,2013-02-13 21:09:00,
2013-02-13 21:14:00,43.3,41.7,29.52,NW,315,7.6,13.0,94,0.00,,,0.00,pywws,2013-02-13 21:14:00,
2013-02-13 21:19:00,43.5,41.6,29.52,NW,315,3.8,9.8,93,0.00,,,0.00,pywws,2013-02-13 21:19:00,
2013-02-13 21:24:00,43.5,41.6,29.53,West,270,6.0,10.7,93,0.00,,,0.00,pywws,2013-02-13 21:24:00,
2013-02-13 21:29:00,43.3,41.7,29.53,NW,315,4.5,8.3,94,0.00,,,0.00,pywws,2013-02-13 21:29:00,
2013-02-13 21:34:00,43.3,41.5,29.53,NW,315,5.4,13.6,93,0.00,,,0.00,pywws,2013-02-13 21:34:00,
2013-02-13 21:39:00,43.3,41.7,29.54,NW,315,5.4,10.7,94,0.00,,,0.00,pywws,2013-02-13 21:39:00,
2013-02-13 21:44:00,43.3,42.0,29.54,NW,315,5.4,11.4,95,0.00,,,0.00,pywws,2013-02-13 21:44:00,
2013-02-13 21:49:00,43.3,41.7,29.53,NW,315,7.6,12.1,94,0.00,,,0.00,pywws,2013-02-13 21:49:00,
2013-02-13 21:54:00,43.2,41.8,29.53,North,0,6.9,10.7,95,0.00,,,0.00,pywws,2013-02-13 21:54:00,
2013-02-13 22:04:00,43.3,41.7,29.53,NW,315,5.4,9.8,94,0.00,,,0.00,pywws,2013-02-13 22:04:00,
2013-02-13 22:09:00,43.3,41.7,29.54,NW,315,5.4,8.3,94,0.00,,,0.00,pywws,2013-02-13 22:09:00,
2013-02-13 22:14:00,43.5,41.9,29.54,West,270,6.9,13.6,94,0.00,,,0.00,pywws,2013-02-13 22:14:00,
2013-02-13 22:19:00,43.5,41.9,29.54,NW,315,3.8,9.2,94,0.00,,,0.00,pywws,2013-02-13 22:19:00,
2013-02-13 22:24:00,43.7,42.1,29.54,NW,315,3.8,7.6,94,0.00,,,0.00,pywws,2013-02-13 22:24:00,
2013-02-13 22:29:00,43.5,41.9,29.54,West,270,2.2,6.0,94,0.00,,,0.00,pywws,2013-02-13 22:29:00,
2013-02-13 22:34:00,43.3,41.7,29.54,NW,315,3.8,8.3,94,0.00,,,0.00,pywws,2013-02-13 22:34:00,
2013-02-13 22:39:00,43.5,41.9,29.54,NW,315,4.5,9.2,94,0.00,,,0.00,pywws,2013-02-13 22:39:00,
2013-02-13 22:44:00,43.7,42.1,29.54,West,270,4.5,7.6,94,0.00,,,0.00,pywws,2013-02-13 22:44:00,
2013-02-13 22:49:00,43.5,41.9,29.54,North,0,3.1,5.4,94,0.00,,,0.00,pywws,2013-02-13 22:49:00,
2013-02-13 22:54:00,43.3,41.7,29.54,West,270,2.2,6.0,94,0.00,,,0.00,pywws,2013-02-13 22:54:00,
2013-02-13 23:04:00,43.0,41.6,29.54,NW,315,5.4,9.8,95,0.00,,,0.00,pywws,2013-02-13 23:04:00,
2013-02-13 23:09:00,42.8,41.7,29.55,North,0,1.6,3.8,96,0.00,,,0.00,pywws,2013-02-13 23:09:00,
2013-02-13 23:14:00,43.0,42.2,29.55,North,0,2.2,5.4,97,0.00,,,0.00,pywws,2013-02-13 23:14:00,
2013-02-13 23:19:00,43.3,42.5,29.54,NW,315,3.8,7.6,97,0.00,,,0.00,pywws,2013-02-13 23:19:00,
2013-02-13 23:24:00,43.3,42.8,29.55,NW,315,2.2,6.0,98,0.00,,,0.00,pywws,2013-02-13 23:24:00,
2013-02-13 23:29:00,43.5,43.0,29.55,WNW,292,1.6,5.4,98,0.00,,,0.00,pywws,2013-02-13 23:29:00,
2013-02-13 23:34:00,43.5,43.0,29.55,NW,315,3.1,4.5,98,0.00,,,0.00,pywws,2013-02-13 23:34:00,
2013-02-13 23:39:00,43.7,43.2,29.55,West,270,1.6,3.8,98,0.00,,,0.00,pywws,2013-02-13 23:39:00,
2013-02-13 23:44:00,43.7,43.2,29.55,SW,225,1.6,4.5,98,0.00,,,0.00,pywws,2013-02-13 23:44:00,
2013-02-13 23:49:00,43.7,42.9,29.55,NW,315,1.6,6.0,97,0.00,,,0.00,pywws,2013-02-13 23:49:00,
2013-02-13 23:54:00,43.7,42.9,29.55,NW,315,0.7,2.2,97,0.00,,,0.00,pywws,2013-02-13 23:54:00,